iso_date,epoch_date,Year,Hour,Min,DOY,POS_DOY,Lat,Lon,BP,Ts,Ta,has_bp,has_ts,has_ta,BuoyID,Buoy_Type,Buoy_Owner,Logistics,Hemisphere
2021-08-14T13:58:56Z,1628949537,2021,13,59,226.5826,226.5826,68.91629,-51.34622,-999.00,-999.00,-999.0,no,no,no,4434518,SPIT,USIABP,ICE-PPR<br>DiskoBay,North
2021-08-14T15:47:57Z,1628956077,2021,15,48,226.6583,226.6583,69.23287,-51.1723,-999.00,-999.00,-999.0,no,no,no,4434518,SPIT,USIABP,ICE-PPR<br>DiskoBay,North
2021-08-15T13:48:00Z,1629035280,2021,13,48,227.575,227.575,69.12432,-51.18716,-999.00,-999.00,-999.0,no,no,no,4434518,SPIT,USIABP,ICE-PPR<br>DiskoBay,North
2021-08-15T14:17:57Z,1629037077,2021,14,18,227.5958,227.5958,69.12342,-51.19244,-999.00,-999.00,-999.0,no,no,no,4434518,SPIT,USIABP,ICE-PPR<br>DiskoBay,North
2021-08-15T15:18:00Z,1629040680,2021,15,18,227.6375,227.6375,69.12376,-51.20746,-999.00,-999.00,-999.0,no,no,no,4434518,SPIT,USIABP,ICE-PPR<br>DiskoBay,North
2021-08-15T17:48:02Z,1629049683,2021,17,48,227.7417,227.7417,69.14206,-51.2628,-999.00,-999.00,-999.0,no,no,no,4434518,SPIT,USIABP,ICE-PPR<br>DiskoBay,North
2021-08-15T18:18:00Z,1629051480,2021,18,18,227.7625,227.7625,69.14815,-51.27516,-999.00,-999.00,-999.0,no,no,no,4434518,SPIT,USIABP,ICE-PPR<br>DiskoBay,North
2021-08-15T18:47:57Z,1629053277,2021,18,48,227.7833,227.7833,69.15437,-51.2858,-999.00,-999.00,-999.0,no,no,no,4434518,SPIT,USIABP,ICE-PPR<br>DiskoBay,North
2021-08-17T10:40:56Z,1629196857,2021,10,41,229.4451,229.4451,69.38464,-51.48434,-999.00,-999.00,-999.0,no,no,no,4434518,SPIT,USIABP,ICE-PPR<br>DiskoBay,North
2021-08-17T14:11:02Z,1629209462,2021,14,11,229.591,229.591,69.35621,-51.57529,-999.00,-999.00,-999.0,no,no,no,4434518,SPIT,USIABP,ICE-PPR<br>DiskoBay,North
2021-08-17T15:10:56Z,1629213057,2021,15,11,229.6326,229.6326,69.35302,-51.60961,-999.00,-999.00,-999.0,no,no,no,4434518,SPIT,USIABP,ICE-PPR<br>DiskoBay,North
2021-08-17T15:41:02Z,1629214862,2021,15,41,229.6535,229.6535,69.35259,-51.62789,-999.00,-999.00,-999.0,no,no,no,4434518,SPIT,USIABP,ICE-PPR<br>DiskoBay,North
2021-08-17T16:10:59Z,1629216660,2021,16,11,229.6743,229.6743,69.35345,-51.64694,-999.00,-999.00,-999.0,no,no,no,4434518,SPIT,USIABP,ICE-PPR<br>DiskoBay,North
2021-08-17T18:09:56Z,1629223796,2021,18,10,229.7569,229.7569,69.37329,-51.71581,-999.00,-999.00,-999.0,no,no,no,4434518,SPIT,USIABP,ICE-PPR<br>DiskoBay,North
2021-08-17T18:40:01Z,1629225602,2021,18,40,229.7778,229.7778,69.38173,-51.72259,-999.00,-999.00,-999.0,no,no,no,4434518,SPIT,USIABP,ICE-PPR<br>DiskoBay,North
2021-08-17T19:09:59Z,1629227399,2021,19,10,229.7986,229.7986,69.39045,-51.7225,-999.00,-999.00,-999.0,no,no,no,4434518,SPIT,USIABP,ICE-PPR<br>DiskoBay,North
2021-08-17T21:08:55Z,1629234536,2021,21,9,229.8812,229.8812,69.41958,-51.7048,-999.00,-999.00,-999.0,no,no,no,4434518,SPIT,USIABP,ICE-PPR<br>DiskoBay,North
2021-08-17T21:39:01Z,1629236341,2021,21,39,229.9021,229.9021,69.42494,-51.69673,-999.00,-999.00,-999.0,no,no,no,4434518,SPIT,USIABP,ICE-PPR<br>DiskoBay,North
2021-08-17T22:08:58Z,1629238139,2021,22,9,229.9229,229.9229,69.42932,-51.68875,-999.00,-999.00,-999.0,no,no,no,4434518,SPIT,USIABP,ICE-PPR<br>DiskoBay,North
2021-08-18T03:38:00Z,1629257881,2021,3,38,230.1514,230.1514,69.42243,-51.70712,-999.00,-999.00,-999.0,no,no,no,4434518,SPIT,USIABP,ICE-PPR<br>DiskoBay,North
2021-08-18T04:07:58Z,1629259678,2021,4,8,230.1722,230.1722,69.42299,-51.72131,-999.00,-999.00,-999.0,no,no,no,4434518,SPIT,USIABP,ICE-PPR<br>DiskoBay,North
2021-08-18T04:38:03Z,1629261484,2021,4,38,230.1931,230.1931,69.42458,-51.73556,-999.00,-999.00,-999.0,no,no,no,4434518,SPIT,USIABP,ICE-PPR<br>DiskoBay,North
2021-08-18T05:08:00Z,1629263281,2021,5,8,230.2139,230.2139,69.42737,-51.75024,-999.00,-999.00,-999.0,no,no,no,4434518,SPIT,USIABP,ICE-PPR<br>DiskoBay,North
2021-08-18T05:37:58Z,1629265078,2021,5,38,230.2347,230.2347,69.42995,-51.76056,-999.00,-999.00,-999.0,no,no,no,4434518,SPIT,USIABP,ICE-PPR<br>DiskoBay,North
2021-08-18T06:08:03Z,1629266884,2021,6,8,230.2556,230.2556,69.43288,-51.76897,-999.00,-999.00,-999.0,no,no,no,4434518,SPIT,USIABP,ICE-PPR<br>DiskoBay,North
2021-08-18T06:38:00Z,1629268681,2021,6,38,230.2764,230.2764,69.43622,-51.77618,-999.00,-999.00,-999.0,no,no,no,4434518,SPIT,USIABP,ICE-PPR<br>DiskoBay,North
2021-08-18T08:08:00Z,1629274081,2021,8,8,230.3389,230.3389,69.44846,-51.78082,-999.00,-999.00,-999.0,no,no,no,4434518,SPIT,USIABP,ICE-PPR<br>DiskoBay,North
2021-08-18T09:08:03Z,1629277684,2021,9,8,230.3806,230.3806,69.45538,-51.77216,-999.00,-999.00,-999.0,no,no,no,4434518,SPIT,USIABP,ICE-PPR<br>DiskoBay,North
2021-08-18T09:38:00Z,1629279481,2021,9,38,230.4014,230.4014,69.45748,-51.76675,-999.00,-999.00,-999.0,no,no,no,4434518,SPIT,USIABP,ICE-PPR<br>DiskoBay,North
2021-08-18T10:07:58Z,1629281278,2021,10,8,230.4222,230.4222,69.45911,-51.76263,-999.00,-999.00,-999.0,no,no,no,4434518,SPIT,USIABP,ICE-PPR<br>DiskoBay,North
2021-08-18T10:37:03Z,1629283023,2021,10,37,230.4424,230.4424,69.4608,-51.75953,-999.00,-999.00,-999.0,no,no,no,4434518,SPIT,USIABP,ICE-PPR<br>DiskoBay,North
2021-08-18T11:07:00Z,1629284820,2021,11,7,230.4632,230.4632,69.46162,-51.75593,-999.00,-999.00,-999.0,no,no,no,4434518,SPIT,USIABP,ICE-PPR<br>DiskoBay,North
2021-08-18T11:36:57Z,1629286618,2021,11,37,230.484,230.484,69.46132,-51.75275,-999.00,-999.00,-999.0,no,no,no,4434518,SPIT,USIABP,ICE-PPR<br>DiskoBay,North
2021-08-18T12:08:03Z,1629288484,2021,12,8,230.5056,230.5056,69.45968,-51.75345,-999.00,-999.00,-999.0,no,no,no,4434518,SPIT,USIABP,ICE-PPR<br>DiskoBay,North
2021-08-18T19:05:57Z,1629313557,2021,19,6,230.7958,230.7958,69.43008,-51.93857,-999.00,-999.00,-999.0,no,no,no,4434518,SPIT,USIABP,ICE-PPR<br>DiskoBay,North
2021-08-18T19:36:02Z,1629315363,2021,19,36,230.8167,230.8167,69.42941,-51.94657,-999.00,-999.00,-999.0,no,no,no,4434518,SPIT,USIABP,ICE-PPR<br>DiskoBay,North
2021-08-18T20:06:00Z,1629317160,2021,20,6,230.8375,230.8375,69.42847,-51.95575,-999.00,-999.00,-999.0,no,no,no,4434518,SPIT,USIABP,ICE-PPR<br>DiskoBay,North
2021-08-18T20:35:57Z,1629318957,2021,20,36,230.8583,230.8583,69.42744,-51.96579,-999.00,-999.00,-999.0,no,no,no,4434518,SPIT,USIABP,ICE-PPR<br>DiskoBay,North
2021-08-18T21:36:00Z,1629322560,2021,21,36,230.9,230.9,69.42698,-51.98491,-999.00,-999.00,-999.0,no,no,no,4434518,SPIT,USIABP,ICE-PPR<br>DiskoBay,North
2021-08-18T22:05:57Z,1629324357,2021,22,6,230.9208,230.9208,69.4278,-51.99281,-999.00,-999.00,-999.0,no,no,no,4434518,SPIT,USIABP,ICE-PPR<br>DiskoBay,North
2021-08-18T22:36:02Z,1629326163,2021,22,36,230.9417,230.9417,69.42879,-52.00165,-999.00,-999.00,-999.0,no,no,no,4434518,SPIT,USIABP,ICE-PPR<br>DiskoBay,North
2021-08-18T23:06:00Z,1629327960,2021,23,6,230.9625,230.9625,69.42912,-52.00993,-999.00,-999.00,-999.0,no,no,no,4434518,SPIT,USIABP,ICE-PPR<br>DiskoBay,North
2021-08-18T23:35:57Z,1629329757,2021,23,36,230.9833,230.9833,69.42878,-52.01791,-999.00,-999.00,-999.0,no,no,no,4434518,SPIT,USIABP,ICE-PPR<br>DiskoBay,North
2021-08-19T00:06:02Z,1629331563,2021,0,6,231.0042,231.0042,69.42834,-52.02435,-999.00,-999.00,-999.0,no,no,no,4434518,SPIT,USIABP,ICE-PPR<br>DiskoBay,North
2021-08-19T00:34:59Z,1629333300,2021,0,35,231.0243,231.0243,69.42698,-52.0325,-999.00,-999.00,-999.0,no,no,no,4434518,SPIT,USIABP,ICE-PPR<br>DiskoBay,North
2021-08-19T01:04:56Z,1629335097,2021,1,5,231.0451,231.0451,69.42634,-52.04237,-999.00,-999.00,-999.0,no,no,no,4434518,SPIT,USIABP,ICE-PPR<br>DiskoBay,North
2021-08-19T01:35:02Z,1629336902,2021,1,35,231.066,231.066,69.42531,-52.05267,-999.00,-999.00,-999.0,no,no,no,4434518,SPIT,USIABP,ICE-PPR<br>DiskoBay,North
2021-08-19T02:06:00Z,1629338760,2021,2,6,231.0875,231.0875,69.42467,-52.06232,-999.00,-999.00,-999.0,no,no,no,4434518,SPIT,USIABP,ICE-PPR<br>DiskoBay,North
2021-08-19T06:06:02Z,1629353163,2021,6,6,231.2542,231.2542,69.42771,-52.15231,-999.00,-999.00,-999.0,no,no,no,4434518,SPIT,USIABP,ICE-PPR<br>DiskoBay,North
2021-08-19T06:34:59Z,1629354900,2021,6,35,231.2743,231.2743,69.42654,-52.16326,-999.00,-999.00,-999.0,no,no,no,4434518,SPIT,USIABP,ICE-PPR<br>DiskoBay,North
2021-08-19T07:04:56Z,1629356697,2021,7,5,231.2951,231.2951,69.42564,-52.17279,-999.00,-999.00,-999.0,no,no,no,4434518,SPIT,USIABP,ICE-PPR<br>DiskoBay,North
2021-08-19T07:35:02Z,1629358502,2021,7,35,231.316,231.316,69.42455,-52.18295,-999.00,-999.00,-999.0,no,no,no,4434518,SPIT,USIABP,ICE-PPR<br>DiskoBay,North
2021-08-19T08:04:59Z,1629360300,2021,8,5,231.3368,231.3368,69.42301,-52.19557,-999.00,-999.00,-999.0,no,no,no,4434518,SPIT,USIABP,ICE-PPR<br>DiskoBay,North
2021-08-19T08:34:56Z,1629362097,2021,8,35,231.3576,231.3576,69.42129,-52.20862,-999.00,-999.00,-999.0,no,no,no,4434518,SPIT,USIABP,ICE-PPR<br>DiskoBay,North
2021-08-19T09:05:02Z,1629363902,2021,9,5,231.3785,231.3785,69.41929,-52.22217,-999.00,-999.00,-999.0,no,no,no,4434518,SPIT,USIABP,ICE-PPR<br>DiskoBay,North
2021-08-19T09:33:59Z,1629365639,2021,9,34,231.3986,231.3986,69.41773,-52.23715,-999.00,-999.00,-999.0,no,no,no,4434518,SPIT,USIABP,ICE-PPR<br>DiskoBay,North
2021-08-19T10:03:56Z,1629367436,2021,10,4,231.4194,231.4194,69.41528,-52.25475,-999.00,-999.00,-999.0,no,no,no,4434518,SPIT,USIABP,ICE-PPR<br>DiskoBay,North
2021-08-19T10:34:01Z,1629369242,2021,10,34,231.4403,231.4403,69.4118,-52.27423,-999.00,-999.00,-999.0,no,no,no,4434518,SPIT,USIABP,ICE-PPR<br>DiskoBay,North
2021-08-19T12:04:01Z,1629374642,2021,12,4,231.5028,231.5028,69.40045,-52.33762,-999.00,-999.00,-999.0,no,no,no,4434518,SPIT,USIABP,ICE-PPR<br>DiskoBay,North
2021-08-19T12:33:59Z,1629376439,2021,12,34,231.5236,231.5236,69.39756,-52.36774,-999.00,-999.00,-999.0,no,no,no,4434518,SPIT,USIABP,ICE-PPR<br>DiskoBay,North
2021-08-19T13:03:56Z,1629378236,2021,13,4,231.5444,231.5444,69.39476,-52.4007,-999.00,-999.00,-999.0,no,no,no,4434518,SPIT,USIABP,ICE-PPR<br>DiskoBay,North
2021-08-19T13:34:01Z,1629380042,2021,13,34,231.5653,231.5653,69.3921,-52.43,-999.00,-999.00,-999.0,no,no,no,4434518,SPIT,USIABP,ICE-PPR<br>DiskoBay,North
2021-08-19T14:03:59Z,1629381839,2021,14,4,231.5861,231.5861,69.38914,-52.45764,-999.00,-999.00,-999.0,no,no,no,4434518,SPIT,USIABP,ICE-PPR<br>DiskoBay,North
2021-08-19T14:33:56Z,1629383636,2021,14,34,231.6069,231.6069,69.38699,-52.48502,-999.00,-999.00,-999.0,no,no,no,4434518,SPIT,USIABP,ICE-PPR<br>DiskoBay,North
2021-08-19T15:04:01Z,1629385442,2021,15,4,231.6278,231.6278,69.38503,-52.51099,-999.00,-999.00,-999.0,no,no,no,4434518,SPIT,USIABP,ICE-PPR<br>DiskoBay,North
2021-08-19T18:04:01Z,1629396242,2021,18,4,231.7528,231.7528,69.37763,-52.60483,-999.00,-999.00,-999.0,no,no,no,4434518,SPIT,USIABP,ICE-PPR<br>DiskoBay,North
2021-08-19T18:32:58Z,1629397979,2021,18,33,231.7729,231.7729,69.37527,-52.61832,-999.00,-999.00,-999.0,no,no,no,4434518,SPIT,USIABP,ICE-PPR<br>DiskoBay,North
2021-08-19T19:02:55Z,1629399776,2021,19,3,231.7937,231.7937,69.37146,-52.63065,-999.00,-999.00,-999.0,no,no,no,4434518,SPIT,USIABP,ICE-PPR<br>DiskoBay,North
2021-08-19T19:33:01Z,1629401581,2021,19,33,231.8146,231.8146,69.36734,-52.64052,-999.00,-999.00,-999.0,no,no,no,4434518,SPIT,USIABP,ICE-PPR<br>DiskoBay,North
2021-08-19T20:02:58Z,1629403379,2021,20,3,231.8354,231.8354,69.36326,-52.65271,-999.00,-999.00,-999.0,no,no,no,4434518,SPIT,USIABP,ICE-PPR<br>DiskoBay,North
2021-08-19T21:32:58Z,1629408779,2021,21,33,231.8979,231.8979,69.35297,-52.69482,-999.00,-999.00,-999.0,no,no,no,4434518,SPIT,USIABP,ICE-PPR<br>DiskoBay,North
2021-08-19T22:33:01Z,1629412381,2021,22,33,231.9396,231.9396,69.34951,-52.72447,-999.00,-999.00,-999.0,no,no,no,4434518,SPIT,USIABP,ICE-PPR<br>DiskoBay,North
2021-08-19T23:02:58Z,1629414179,2021,23,3,231.9604,231.9604,69.34616,-52.7388,-999.00,-999.00,-999.0,no,no,no,4434518,SPIT,USIABP,ICE-PPR<br>DiskoBay,North
2021-08-19T23:33:04Z,1629415984,2021,23,33,231.9813,231.9813,69.3438,-52.74979,-999.00,-999.00,-999.0,no,no,no,4434518,SPIT,USIABP,ICE-PPR<br>DiskoBay,North
2021-08-20T00:31:58Z,1629419518,2021,0,32,232.0222,232.0222,69.33781,-52.77806,-999.00,-999.00,-999.0,no,no,no,4434518,SPIT,USIABP,ICE-PPR<br>DiskoBay,North
2021-08-20T01:02:55Z,1629421376,2021,1,3,232.0437,232.0437,69.33423,-52.7944,-999.00,-999.00,-999.0,no,no,no,4434518,SPIT,USIABP,ICE-PPR<br>DiskoBay,North
2021-08-20T01:32:00Z,1629423121,2021,1,32,232.0639,232.0639,69.3297,-52.81342,-999.00,-999.00,-999.0,no,no,no,4434518,SPIT,USIABP,ICE-PPR<br>DiskoBay,North
2021-08-20T02:32:03Z,1629426724,2021,2,32,232.1056,232.1056,69.31974,-52.85576,-999.00,-999.00,-999.0,no,no,no,4434518,SPIT,USIABP,ICE-PPR<br>DiskoBay,North
2021-08-20T03:02:00Z,1629428521,2021,3,2,232.1264,232.1264,69.31395,-52.8743,-999.00,-999.00,-999.0,no,no,no,4434518,SPIT,USIABP,ICE-PPR<br>DiskoBay,North
2021-08-20T04:02:03Z,1629432124,2021,4,2,232.1681,232.1681,69.30338,-52.9139,-999.00,-999.00,-999.0,no,no,no,4434518,SPIT,USIABP,ICE-PPR<br>DiskoBay,North
2021-08-20T04:32:00Z,1629433921,2021,4,32,232.1889,232.1889,69.29823,-52.9321,-999.00,-999.00,-999.0,no,no,no,4434518,SPIT,USIABP,ICE-PPR<br>DiskoBay,North
2021-08-20T05:01:58Z,1629435718,2021,5,2,232.2097,232.2097,69.29298,-52.94904,-999.00,-999.00,-999.0,no,no,no,4434518,SPIT,USIABP,ICE-PPR<br>DiskoBay,North
2021-08-20T05:32:03Z,1629437524,2021,5,32,232.2306,232.2306,69.28824,-52.96628,-999.00,-999.00,-999.0,no,no,no,4434518,SPIT,USIABP,ICE-PPR<br>DiskoBay,North
2021-08-20T06:01:00Z,1629439260,2021,6,1,232.2507,232.2507,69.28461,-52.98273,-999.00,-999.00,-999.0,no,no,no,4434518,SPIT,USIABP,ICE-PPR<br>DiskoBay,North
2021-08-20T06:30:57Z,1629441058,2021,6,31,232.2715,232.2715,69.28088,-52.99689,-999.00,-999.00,-999.0,no,no,no,4434518,SPIT,USIABP,ICE-PPR<br>DiskoBay,North
2021-08-20T07:31:00Z,1629444660,2021,7,31,232.3132,232.3132,69.27495,-53.02423,-999.00,-999.00,-999.0,no,no,no,4434518,SPIT,USIABP,ICE-PPR<br>DiskoBay,North
2021-08-20T08:00:57Z,1629446458,2021,8,1,232.334,232.334,69.27281,-53.03668,-999.00,-999.00,-999.0,no,no,no,4434518,SPIT,USIABP,ICE-PPR<br>DiskoBay,North
2021-08-20T08:31:03Z,1629448263,2021,8,31,232.3549,232.3549,69.27096,-53.05033,-999.00,-999.00,-999.0,no,no,no,4434518,SPIT,USIABP,ICE-PPR<br>DiskoBay,North
2021-08-20T09:01:00Z,1629450060,2021,9,1,232.3757,232.3757,69.26903,-53.06552,-999.00,-999.00,-999.0,no,no,no,4434518,SPIT,USIABP,ICE-PPR<br>DiskoBay,North
2021-08-20T09:30:57Z,1629451858,2021,9,31,232.3965,232.3965,69.26691,-53.07782,-999.00,-999.00,-999.0,no,no,no,4434518,SPIT,USIABP,ICE-PPR<br>DiskoBay,North
2021-08-20T10:01:03Z,1629453663,2021,10,1,232.4174,232.4174,69.26391,-53.08829,-999.00,-999.00,-999.0,no,no,no,4434518,SPIT,USIABP,ICE-PPR<br>DiskoBay,North
2021-08-20T10:59:57Z,1629457197,2021,11,0,232.4583,232.4583,69.25745,-53.11224,-999.00,-999.00,-999.0,no,no,no,4434518,SPIT,USIABP,ICE-PPR<br>DiskoBay,North
2021-08-20T11:30:02Z,1629459003,2021,11,30,232.4792,232.4792,69.25415,-53.12451,-999.00,-999.00,-999.0,no,no,no,4434518,SPIT,USIABP,ICE-PPR<br>DiskoBay,North
2021-08-20T12:01:00Z,1629460860,2021,12,1,232.5007,232.5007,69.24969,-53.13318,-999.00,-999.00,-999.0,no,no,no,4434518,SPIT,USIABP,ICE-PPR<br>DiskoBay,North
2021-08-20T12:29:57Z,1629462597,2021,12,30,232.5208,232.5208,69.245,-53.14182,-999.00,-999.00,-999.0,no,no,no,4434518,SPIT,USIABP,ICE-PPR<br>DiskoBay,North
2021-08-20T13:00:02Z,1629464403,2021,13,0,232.5417,232.5417,69.24069,-53.15276,-999.00,-999.00,-999.0,no,no,no,4434518,SPIT,USIABP,ICE-PPR<br>DiskoBay,North
2021-08-20T13:30:00Z,1629466200,2021,13,30,232.5625,232.5625,69.23666,-53.1622,-999.00,-999.00,-999.0,no,no,no,4434518,SPIT,USIABP,ICE-PPR<br>DiskoBay,North
2021-08-20T14:00:57Z,1629468058,2021,14,1,232.584,232.584,69.23283,-53.172,-999.00,-999.00,-999.0,no,no,no,4434518,SPIT,USIABP,ICE-PPR<br>DiskoBay,North
2021-08-20T14:30:02Z,1629469803,2021,14,30,232.6042,232.6042,69.22898,-53.18231,-999.00,-999.00,-999.0,no,no,no,4434518,SPIT,USIABP,ICE-PPR<br>DiskoBay,North
2021-08-20T15:29:57Z,1629473397,2021,15,30,232.6458,232.6458,69.22279,-53.20502,-999.00,-999.00,-999.0,no,no,no,4434518,SPIT,USIABP,ICE-PPR<br>DiskoBay,North
2021-08-20T16:59:57Z,1629478797,2021,17,0,232.7083,232.7083,69.21381,-53.22592,-999.00,-999.00,-999.0,no,no,no,4434518,SPIT,USIABP,ICE-PPR<br>DiskoBay,North
2021-08-20T19:00:02Z,1629486003,2021,19,0,232.7917,232.7917,69.19361,-53.2296,-999.00,-999.00,-999.0,no,no,no,4434518,SPIT,USIABP,ICE-PPR<br>DiskoBay,North
2021-08-20T19:30:00Z,1629487800,2021,19,30,232.8125,232.8125,69.18812,-53.22934,-999.00,-999.00,-999.0,no,no,no,4434518,SPIT,USIABP,ICE-PPR<br>DiskoBay,North
2021-08-20T20:58:59Z,1629493140,2021,20,59,232.8743,232.8743,69.17537,-53.22452,-999.00,-999.00,-999.0,no,no,no,4434518,SPIT,USIABP,ICE-PPR<br>DiskoBay,North
2021-08-20T21:28:56Z,1629494937,2021,21,29,232.8951,232.8951,69.17232,-53.22641,-999.00,-999.00,-999.0,no,no,no,4434518,SPIT,USIABP,ICE-PPR<br>DiskoBay,North
2021-08-20T22:28:59Z,1629498540,2021,22,29,232.9368,232.9368,69.1675,-53.23023,-999.00,-999.00,-999.0,no,no,no,4434518,SPIT,USIABP,ICE-PPR<br>DiskoBay,North
2021-08-20T22:58:56Z,1629500337,2021,22,59,232.9576,232.9576,69.16531,-53.2298,-999.00,-999.00,-999.0,no,no,no,4434518,SPIT,USIABP,ICE-PPR<br>DiskoBay,North
2021-08-21T02:28:01Z,1629512882,2021,2,28,233.1028,233.1028,69.14436,-53.21417,-999.00,-999.00,-999.0,no,no,no,4434518,SPIT,USIABP,ICE-PPR<br>DiskoBay,North
2021-08-21T02:58:59Z,1629514740,2021,2,59,233.1243,233.1243,69.14169,-53.21318,-999.00,-999.00,-999.0,no,no,no,4434518,SPIT,USIABP,ICE-PPR<br>DiskoBay,North
2021-08-21T03:28:56Z,1629516537,2021,3,29,233.1451,233.1451,69.13963,-53.21327,-999.00,-999.00,-999.0,no,no,no,4434518,SPIT,USIABP,ICE-PPR<br>DiskoBay,North
2021-08-21T03:59:02Z,1629518342,2021,3,59,233.166,233.166,69.13757,-53.2131,-999.00,-999.00,-999.0,no,no,no,4434518,SPIT,USIABP,ICE-PPR<br>DiskoBay,North
2021-08-21T04:57:56Z,1629521876,2021,4,58,233.2069,233.2069,69.13339,-53.21084,-999.00,-999.00,-999.0,no,no,no,4434518,SPIT,USIABP,ICE-PPR<br>DiskoBay,North
2021-08-21T05:28:01Z,1629523682,2021,5,28,233.2278,233.2278,69.13218,-53.2105,-999.00,-999.00,-999.0,no,no,no,4434518,SPIT,USIABP,ICE-PPR<br>DiskoBay,North
2021-08-21T05:57:59Z,1629525479,2021,5,58,233.2486,233.2486,69.13142,-53.2099,-999.00,-999.00,-999.0,no,no,no,4434518,SPIT,USIABP,ICE-PPR<br>DiskoBay,North
2021-08-21T11:28:01Z,1629545282,2021,11,28,233.4778,233.4778,69.11914,-53.17697,-999.00,-999.00,-999.0,no,no,no,4434518,SPIT,USIABP,ICE-PPR<br>DiskoBay,North
2021-08-21T13:27:59Z,1629552479,2021,13,28,233.5611,233.5611,69.1146,-53.15216,-999.00,-999.00,-999.0,no,no,no,4434518,SPIT,USIABP,ICE-PPR<br>DiskoBay,North
2021-08-21T17:56:58Z,1629568619,2021,17,57,233.7479,233.7479,69.08906,-53.11888,-999.00,-999.00,-999.0,no,no,no,4434518,SPIT,USIABP,ICE-PPR<br>DiskoBay,North
2021-08-21T18:27:04Z,1629570424,2021,18,27,233.7688,233.7688,69.08683,-53.11098,-999.00,-999.00,-999.0,no,no,no,4434518,SPIT,USIABP,ICE-PPR<br>DiskoBay,North
2021-08-21T18:57:01Z,1629572221,2021,18,57,233.7896,233.7896,69.08477,-53.09982,-999.00,-999.00,-999.0,no,no,no,4434518,SPIT,USIABP,ICE-PPR<br>DiskoBay,North
2021-08-21T19:26:58Z,1629574019,2021,19,27,233.8104,233.8104,69.08298,-53.08707,-999.00,-999.00,-999.0,no,no,no,4434518,SPIT,USIABP,ICE-PPR<br>DiskoBay,North
2021-08-21T19:56:55Z,1629575816,2021,19,57,233.8312,233.8312,69.08135,-53.07377,-999.00,-999.00,-999.0,no,no,no,4434518,SPIT,USIABP,ICE-PPR<br>DiskoBay,North
2021-08-21T20:27:01Z,1629577621,2021,20,27,233.8521,233.8521,69.08028,-53.05832,-999.00,-999.00,-999.0,no,no,no,4434518,SPIT,USIABP,ICE-PPR<br>DiskoBay,North
2021-08-21T20:56:58Z,1629579419,2021,20,57,233.8729,233.8729,69.07958,-53.04065,-999.00,-999.00,-999.0,no,no,no,4434518,SPIT,USIABP,ICE-PPR<br>DiskoBay,North
2021-08-21T22:26:58Z,1629584819,2021,22,27,233.9354,233.9354,69.07631,-52.98981,-999.00,-999.00,-999.0,no,no,no,4434518,SPIT,USIABP,ICE-PPR<br>DiskoBay,North
2021-08-22T01:56:03Z,1629597364,2021,1,56,234.0806,234.0806,69.06954,-52.92288,-999.00,-999.00,-999.0,no,no,no,4434518,SPIT,USIABP,ICE-PPR<br>DiskoBay,North
2021-08-22T02:26:00Z,1629599161,2021,2,26,234.1014,234.1014,69.07049,-52.91885,-999.00,-999.00,-999.0,no,no,no,4434518,SPIT,USIABP,ICE-PPR<br>DiskoBay,North
2021-08-22T02:55:58Z,1629600958,2021,2,56,234.1222,234.1222,69.07143,-52.91396,-999.00,-999.00,-999.0,no,no,no,4434518,SPIT,USIABP,ICE-PPR<br>DiskoBay,North
2021-08-22T03:26:03Z,1629602764,2021,3,26,234.1431,234.1431,69.0725,-52.90787,-999.00,-999.00,-999.0,no,no,no,4434518,SPIT,USIABP,ICE-PPR<br>DiskoBay,North
2021-08-22T03:56:00Z,1629604561,2021,3,56,234.1639,234.1639,69.07438,-52.901,-999.00,-999.00,-999.0,no,no,no,4434518,SPIT,USIABP,ICE-PPR<br>DiskoBay,North
